Selawik, AK

9:04 AM AKDT on June 29, 2017 (GMT -0800)
Selawik

Weather History for PASK - July, 2013

Change the Weather History Date:

Sunday, July 14, 2013

  Actual Average Record
Temperature  
Mean Temperature 68 °F -  
Max Temperature 75 °F 61 °F 80 °F (2016)
Min Temperature 60 °F 50 °F 44 °F (1997)
Cooling Degree Days 2    
Growing Degree Days 18 (Base 50)    
Moisture  
Dew Point 55 °F    
Average Humidity 66    
Maximum Humidity 82    
Minimum Humidity 41    
Precipitation  
Precipitation 0.14 in - - ()
Sea Level Pressure  
Sea Level Pressure 30.02 in    
Wind  
Wind Speed 7 mph (South)    
Max Wind Speed 16 mph    
Max Gust Speed 24 mph    
Visibility 10 miles    
Events      
Averages and records for this station are not official NWS values.
T = Trace of Precipitation, MM = Missing Value Source: NWS Daily Summary

Daily Weather History Graph

Daily Weather History Graph

Search for Another Location

Airport or City:

Trip Planner

Search our weather history database for the weather conditions in past years. The results will help you decide how hot, cold, wet, or windy it might be!

Date:

Astronomy

Jul. 14, 2013 Rise Set
Actual Time 3:55 AM AKDT 1:31 AM AKDT
Civil Twilight Sun does not set Sun does not set
Nautical Twilight Sun does not set Sun does not set
Astronomical Twilight Sun does not set Sun does not set
Moon 2:29 PM AKDT (7/14) 12:34 AM AKDT (7/14)
Length of Visible Light 24h 00m
Length of Day
21h 36m
Waxing Crescent, 36% of the Moon is Illuminated
Jul 14
Waxing Crescent
Jul 15
First Quarter
Jul 22
Full
Jul 29
Last Quarter
Aug 6
New

Hourly Weather History & Observations

Time (AKDT) Temp. Dew Point Humidity Pressure Visibility Wind Dir Wind Speed Gust Speed Precip Events Conditions
12:16 AM 69.8 °F 57.2 °F 64% 29.95 in 10.0 mi SSW 4.6 mph - N/A   Clear
12:36 AM 66.2 °F 55.4 °F 68% 29.95 in 10.0 mi South 5.8 mph - N/A   Scattered Clouds
12:56 AM 66.2 °F 55.4 °F 68% 29.96 in 10.0 mi SSW 4.6 mph - N/A   Overcast
1:16 AM 66.2 °F 57.2 °F 73% 29.96 in 10.0 mi South 5.8 mph - N/A   Overcast
1:36 AM 66.2 °F 57.2 °F 73% 29.97 in 10.0 mi South 5.8 mph - N/A   Overcast
1:56 AM 66.2 °F 57.2 °F 73% 29.97 in 10.0 mi SSW 4.6 mph - N/A   Mostly Cloudy
2:16 AM 66.2 °F 55.4 °F 68% 29.97 in 10.0 mi South 4.6 mph - N/A   Scattered Clouds
2:36 AM 64.4 °F 55.4 °F 73% 29.97 in 10.0 mi Calm Calm - N/A   Partly Cloudy
2:56 AM 64.4 °F 55.4 °F 73% 29.97 in 10.0 mi Calm Calm - N/A   Partly Cloudy
3:16 AM 64.4 °F 53.6 °F 68% 29.98 in 10.0 mi North 3.5 mph - N/A   Mostly Cloudy
3:36 AM 66.2 °F 51.8 °F 60% 29.98 in 10.0 mi Calm Calm - N/A   Mostly Cloudy
3:56 AM 66.2 °F 53.6 °F 64% 29.98 in 10.0 mi Calm Calm - N/A   Scattered Clouds
4:16 AM 66.2 °F 53.6 °F 64% 29.98 in 10.0 mi ESE 3.5 mph - N/A   Clear
4:36 AM 66.2 °F 53.6 °F 64% 29.98 in 10.0 mi SE 3.5 mph - N/A   Clear
4:56 AM 66.2 °F 59.0 °F 78% 29.98 in 10.0 mi East 3.5 mph - N/A   Clear
5:16 AM 66.2 °F 57.2 °F 73% 29.99 in 10.0 mi East 6.9 mph - N/A   Clear
5:36 AM 66.2 °F 57.2 °F 73% 29.99 in 10.0 mi East 6.9 mph - N/A   Partly Cloudy
5:56 AM 64.4 °F 57.2 °F 77% 29.99 in 10.0 mi East 6.9 mph - N/A   Partly Cloudy
6:16 AM 64.4 °F 57.2 °F 77% 29.99 in 10.0 mi East 6.9 mph - N/A   Partly Cloudy
6:36 AM 64.4 °F 57.2 °F 77% 29.99 in 10.0 mi East 9.2 mph - N/A   Mostly Cloudy
6:56 AM 64.4 °F 57.2 °F 77% 29.99 in 10.0 mi East 10.4 mph - N/A   Overcast
7:16 AM 64.4 °F 57.2 °F 77% 29.99 in 10.0 mi ENE 6.9 mph - N/A   Mostly Cloudy
7:36 AM 64.4 °F 57.2 °F 77% 29.99 in 10.0 mi ENE 8.1 mph - N/A   Mostly Cloudy
7:56 AM 64.4 °F 57.2 °F 77% 29.99 in 10.0 mi ENE 8.1 mph - N/A   Overcast
8:16 AM 64.4 °F 57.2 °F 77% 29.99 in 10.0 mi ENE 6.9 mph - N/A   Overcast
8:36 AM 64.4 °F 55.4 °F 73% 29.99 in 10.0 mi ENE 9.2 mph - N/A   Overcast
8:56 AM 64.4 °F 57.2 °F 77% 30.00 in 10.0 mi East 6.9 mph - N/A   Overcast
9:16 AM 66.2 °F 57.2 °F 73% 30.00 in 10.0 mi East 6.9 mph - N/A   Mostly Cloudy
9:36 AM 66.2 °F 55.4 °F 68% 30.00 in 10.0 mi ENE 8.1 mph - N/A   Mostly Cloudy
9:56 AM 66.2 °F 57.2 °F 73% 30.00 in 10.0 mi NE 10.4 mph - N/A   Overcast
10:16 AM 66.2 °F 57.2 °F 73% 30.00 in 10.0 mi ENE 10.4 mph - N/A   Overcast
10:36 AM 66.2 °F 57.2 °F 73% 29.99 in 10.0 mi ENE 10.4 mph - N/A   Mostly Cloudy
10:56 AM 68.0 °F 57.2 °F 68% 29.99 in 10.0 mi ENE 10.4 mph - N/A   Scattered Clouds
11:16 AM 69.8 °F 57.2 °F 64% 30.00 in 10.0 mi East 9.2 mph - N/A   Clear
11:36 AM 69.8 °F 57.2 °F 64% 29.99 in 10.0 mi ESE 4.6 mph - N/A   Clear
11:56 AM 71.6 °F 57.2 °F 60% 30.00 in 10.0 mi ESE 4.6 mph - N/A   Clear
12:16 PM 71.6 °F 57.2 °F 60% 30.00 in 10.0 mi ESE 3.5 mph - N/A   Clear
12:36 PM 71.6 °F 57.2 °F 60% 30.01 in 10.0 mi SW 3.5 mph - N/A   Scattered Clouds
12:56 PM 73.4 °F 55.4 °F 53% 30.01 in 10.0 mi SW 6.9 mph - N/A   Scattered Clouds
1:16 PM 73.4 °F 55.4 °F 53% 30.02 in 10.0 mi SW 10.4 mph - N/A   Partly Cloudy
1:36 PM 73.4 °F 55.4 °F 53% 30.02 in 10.0 mi WSW 13.8 mph 19.6 mph N/A   Mostly Cloudy
1:56 PM 73.4 °F 53.6 °F 50% 30.03 in 10.0 mi SSW 12.7 mph 18.4 mph N/A   Partly Cloudy
2:16 PM 75.2 °F 53.6 °F 47% 30.03 in 10.0 mi SW 15.0 mph 23.0 mph N/A   Clear
2:36 PM 75.2 °F 51.8 °F 44% 30.03 in 10.0 mi SW 16.1 mph 21.9 mph N/A   Clear
2:56 PM 75.2 °F 51.8 °F 44% 30.03 in 10.0 mi SSW 16.1 mph 24.2 mph N/A   Clear
3:16 PM 73.4 °F 48.2 °F 41% 30.04 in 10.0 mi SW 15.0 mph 23.0 mph N/A   Clear
3:36 PM 73.4 °F 50.0 °F 44% 30.04 in 10.0 mi SSW 15.0 mph 20.7 mph N/A   Clear
3:56 PM 71.6 °F 51.8 °F 50% 30.05 in 10.0 mi SW 13.8 mph 19.6 mph N/A   Clear
4:16 PM 71.6 °F 51.8 °F 50% 30.05 in 10.0 mi SSW 15.0 mph 19.6 mph N/A   Clear
4:36 PM 71.6 °F 51.8 °F 50% 30.05 in 10.0 mi SSW 13.8 mph 19.6 mph N/A   Partly Cloudy
4:56 PM 71.6 °F 53.6 °F 53% 30.05 in 10.0 mi SSW 13.8 mph 20.7 mph N/A   Partly Cloudy
5:16 PM 71.6 °F 53.6 °F 53% 30.05 in 10.0 mi SSW 10.4 mph 19.6 mph N/A   Clear
5:36 PM 71.6 °F 53.6 °F 53% 30.05 in 10.0 mi SW 16.1 mph - N/A   Clear
5:56 PM 69.8 °F 51.8 °F 53% 30.05 in 10.0 mi SSW 15.0 mph 20.7 mph N/A   Clear
6:16 PM 69.8 °F 51.8 °F 53% 30.05 in 10.0 mi SW 12.7 mph - N/A   Scattered Clouds
6:36 PM 69.8 °F 51.8 °F 53% 30.05 in 10.0 mi SW 16.1 mph - N/A   Mostly Cloudy
6:56 PM 69.8 °F 53.6 °F 56% 30.05 in 10.0 mi WSW 10.4 mph - N/A   Mostly Cloudy
7:16 PM 68.0 °F 53.6 °F 60% 30.05 in 10.0 mi WSW 13.8 mph 17.3 mph N/A   Mostly Cloudy
7:36 PM 66.2 °F 53.6 °F 64% 30.05 in 10.0 mi WSW 12.7 mph 17.3 mph N/A   Overcast
7:56 PM 66.2 °F 53.6 °F 64% 30.06 in 10.0 mi WSW 12.7 mph 19.6 mph N/A   Overcast
8:16 PM 64.4 °F 55.4 °F 73% 30.05 in 10.0 mi WSW 9.2 mph - N/A   Overcast
8:36 PM 64.4 °F 55.4 °F 73% 30.06 in 10.0 mi SW 6.9 mph - N/A   Overcast
8:56 PM 64.4 °F 55.4 °F 73% 30.06 in 10.0 mi WSW 5.8 mph - N/A   Overcast
9:16 PM 62.6 °F 55.4 °F 77% 30.07 in 10.0 mi SW 8.1 mph - 0.01 in   Overcast
9:36 PM 62.6 °F 57.2 °F 82% 30.07 in 10.0 mi SSW 4.6 mph - 0.02 in   Overcast
9:56 PM 62.6 °F 57.2 °F 82% 30.07 in 10.0 mi SSW 4.6 mph - 0.03 in   Overcast
10:16 PM 62.6 °F 55.4 °F 77% 30.07 in 10.0 mi SSW 3.5 mph - 0.01 in   Overcast
10:36 PM 60.8 °F 55.4 °F 82% 30.08 in 10.0 mi Calm Calm - 0.05 in   Overcast
10:56 PM 60.8 °F 55.4 °F 82% 30.07 in 10.0 mi Calm Calm - 0.06 in   Overcast
11:16 PM 62.6 °F 55.4 °F 77% 30.08 in 7.0 mi Calm Calm - 0.02 in   Overcast
11:36 PM 60.8 °F 55.4 °F 82% 30.08 in 10.0 mi SSW 3.5 mph - 0.05 in   Overcast
11:56 PM 60.8 °F 55.4 °F 82% 30.08 in 10.0 mi SE 5.8 mph - 0.05 in   Overcast